[[{"header":{"parameterUnit":"m.s-1","parameterCategory":1,"la1":30.2992,"la2":30.254,"lo1":-89.0895,"lo2":-89.0443,"dy":0.0025,"dx":0.0025,"nx":19,"ny":19,"refTime":"2026-03-22T09:00:00:Z","depth":0,"parameterNumber":2,"parameterNumberName":"U-component_of_WINDS"},"data":[0,0,0,1.6101,1.6103,1.6216,1.6216,1.6359,1.6361,0,0,0,0,0,0,0,0,0,0,0,1.6064,1.6065,1.6101,1.6104,1.6216,1.6216,1.6359,1.6361,0,0,0,0,0,0,0,0,0,0,0,1.6064,1.6065,1.6066,1.6104,1.6216,1.6217,1.6359,1.6275,0,0,0,0,0,0,0,0,0,0,1.6166,1.6127,1.6064,1.6066,1.6105,1.6216,1.6217,1.6271,1.628,1.6307,0,1.6328,0,1.6346,1.637,1.637,0,0,0,1.6107,1.612,1.6153,1.6066,1.6106,1.6216,1.6166,1.6276,1.6287,1.6319,1.633,1.6335,1.6349,1.6371,1.6372,1.6515,1.6515,0,0,1.61,1.6083,1.6146,1.616,1.614,1.6162,1.617,1.6283,1.6293,1.633,1.6339,1.6351,1.6372,1.6373,1.6514,1.6515,0,0,0,1.6081,1.6078,1.6109,1.6154,1.6174,1.6166,1.6174,1.6288,1.63,1.634,1.6353,1.6373,1.6374,1.6513,1.6514,1.6524,0,0,0,1.6077,1.6066,1.6106,1.6096,1.6172,1.6232,1.6177,1.6292,1.6305,1.6352,1.6373,1.6376,1.6513,1.6514,1.6523,1.6532,0,0,0,1.6058,1.6064,1.6079,1.6095,1.6143,1.6231,1.6249,1.6295,1.6313,1.6371,1.6376,1.6512,1.6514,1.6521,1.653,1.6567,0,0,0,1.6033,1.6084,1.6079,1.6142,1.6142,1.6235,1.6248,1.6319,1.6369,1.6373,1.6513,1.6514,1.6521,1.6528,1.6565,1.6596,1.6607,0,0,1.6088,1.609,1.6129,1.6128,1.6217,1.6219,1.6312,1.6374,1.6397,1.6475,1.6479,1.6523,1.653,1.6567,1.6669,1.6677,0,0,0,1.6141,1.6169,1.6196,1.6243,1.6293,1.6338,1.6389,1.6414,1.6481,1.6432,1.6546,1.6551,1.6573,1.6589,1.6596,1.6618,1.652,1.652,1.652,1.6192,1.6219,1.6287,1.6329,1.6375,1.6429,1.647,1.6513,1.6524,1.6552,1.6575,1.6634,1.6651,1.6657,1.668,1.6592,1.6592,1.6592,1.6592,1.6278,1.6323,1.6341,1.6413,1.6443,1.6505,1.6562,1.6569,1.6633,1.6617,1.6638,1.6619,1.6665,1.6687,1.6593,1.6593,1.6593,1.6593,1.6593,1.6316,1.6343,1.6372,1.6447,1.6502,1.6544,1.6606,1.663,1.6654,1.6675,1.6705,1.6705,1.671,1.6687,1.6687,1.6688,1.6688,1.6688,1.6688,1.6344,1.6377,1.6426,1.6487,1.6523,1.6575,1.6634,1.6671,1.672,1.6733,1.6733,1.6746,1.6663,1.6643,1.6691,1.6691,1.669,1.669,1.669,1.6423,1.641,1.6485,1.6522,1.6599,1.6655,1.6687,1.6762,1.6797,1.6828,1.6837,1.6772,1.6776,1.6771,1.6755,1.6829,1.6829,1.6829,1.6829,1.6457,1.6462,1.6547,1.6605,1.6665,1.6703,1.6792,1.6841,1.6889,1.6914,1.6907,1.6887,1.6881,1.6889,1.6881,1.6867,1.6968,1.6968,1.6968,1.6508,1.6521,1.659,1.6637,1.6701,1.6756,1.6843,1.6912,1.6964,1.6975,1.6935,1.6929,1.6898,1.6885,1.6894,1.6881,1.6855,0,0]},{"header":{"parameterUnit":"m.s-1","parameterCategory":1,"la1":30.2992,"la2":30.254,"lo1":-89.0895,"lo2":-89.0443,"dy":0.0025,"dx":0.0025,"nx":19,"ny":19,"refTime":"2026-03-22T09:00:00:Z","depth":0,"parameterNumber":3,"parameterNumberName":"V-component_of_WINDS"},"data":[0,0,0,-0.7454,-0.7452,-0.7358,-0.7358,-0.724,-0.7239,0,0,0,0,0,0,0,0,0,0,0,-0.7483,-0.7482,-0.7454,-0.7452,-0.7358,-0.7358,-0.724,-0.7239,0,0,0,0,0,0,0,0,0,0,0,-0.7483,-0.7482,-0.7481,-0.7451,-0.7358,-0.7358,-0.724,-0.731,0,0,0,0,0,0,0,0,0,0,-0.74,-0.7429,-0.7483,-0.7481,-0.7451,-0.7359,-0.7358,-0.7313,-0.7305,-0.7283,0,-0.7264,0,-0.725,-0.7231,-0.723,0,0,0,-0.7449,-0.7435,-0.7409,-0.7481,-0.745,-0.7359,-0.74,-0.7309,-0.73,-0.7273,-0.7262,-0.7258,-0.7248,-0.723,-0.723,-0.7112,-0.7112,0,0,-0.7455,-0.7466,-0.7415,-0.7404,-0.742,-0.7403,-0.7397,-0.7303,-0.7292,-0.7262,-0.7255,-0.7246,-0.7229,-0.7228,-0.7112,-0.7112,0,0,0,-0.7471,-0.747,-0.7446,-0.7408,-0.7392,-0.74,-0.7393,-0.7296,-0.7288,-0.7254,-0.7245,-0.7229,-0.7227,-0.7113,-0.7112,-0.7103,0,0,0,-0.7474,-0.7479,-0.7448,-0.7454,-0.7394,-0.7343,-0.7389,-0.7294,-0.7283,-0.7245,-0.7229,-0.7226,-0.7113,-0.7112,-0.7104,-0.7096,0,0,0,-0.7488,-0.7481,-0.7468,-0.7455,-0.7416,-0.7344,-0.733,-0.7292,-0.7278,-0.723,-0.7226,-0.7114,-0.7113,-0.7105,-0.7098,-0.707,0,0,0,-0.7506,-0.7458,-0.7468,-0.7411,-0.7417,-0.734,-0.7331,-0.7272,-0.723,-0.7228,-0.7113,-0.7112,-0.7106,-0.7099,-0.7072,-0.705,-0.7042,0,0,-0.7452,-0.7452,-0.7417,-0.7424,-0.7349,-0.7353,-0.7276,-0.7225,-0.7208,-0.7145,-0.7142,-0.7104,-0.7098,-0.7071,-0.6992,-0.6985,0,0,0,-0.7404,-0.738,-0.7357,-0.732,-0.7283,-0.725,-0.7211,-0.7192,-0.7139,-0.7179,-0.7086,-0.7082,-0.7065,-0.7054,-0.7049,-0.7035,-0.7108,-0.7108,-0.7108,-0.7341,-0.7327,-0.727,-0.7245,-0.7209,-0.7172,-0.7141,-0.711,-0.7101,-0.7081,-0.7061,-0.7016,-0.7003,-0.6999,-0.6985,-0.7048,-0.7048,-0.7048,-0.7048,-0.7261,-0.7225,-0.7221,-0.7165,-0.715,-0.7101,-0.7064,-0.7061,-0.7014,-0.7028,-0.7012,-0.7029,-0.6993,-0.6979,-0.7047,-0.7047,-0.7047,-0.7047,-0.7048,-0.7218,-0.7199,-0.7181,-0.7129,-0.709,-0.7066,-0.7023,-0.701,-0.6996,-0.6981,-0.6961,-0.6961,-0.6961,-0.6973,-0.6973,-0.6972,-0.6972,-0.6972,-0.6972,-0.7182,-0.7162,-0.7128,-0.7088,-0.7065,-0.7033,-0.6998,-0.6974,-0.6944,-0.6938,-0.6937,-0.6933,-0.6992,-0.7008,-0.697,-0.697,-0.697,-0.6971,-0.6971,-0.7105,-0.7122,-0.707,-0.7047,-0.7002,-0.6967,-0.6952,-0.6906,-0.6884,-0.6864,-0.6864,-0.691,-0.6908,-0.6912,-0.6925,-0.6867,-0.6867,-0.6867,-0.6867,-0.707,-0.707,-0.7016,-0.6982,-0.6946,-0.6929,-0.6872,-0.6846,-0.682,-0.6807,-0.6813,-0.6829,-0.6834,-0.6829,-0.6835,-0.6847,-0.6771,-0.6771,-0.677,-0.7023,-0.702,-0.6974,-0.6953,-0.6918,-0.6888,-0.6835,-0.6795,-0.6769,-0.6766,-0.6796,-0.68,-0.6826,-0.6835,-0.6831,-0.684,-0.6862,0,0]}]]